Helicity
131 125 227 248 204 129 184 212 164 126 172 126 148 112 197 157 142 133 126 118 100 110 134 139 154 158 142 127 125 126 125 117 153 165 150 145 193 255 225 245 250 206 174
196 161 300 334 321 236 197 213 146 93 94 96 97 106 140 127 143 155 117 105 125 132 134 133 170 163 133 124 126 132 128 153 187 172 180 183 180 267 228 203 175 229 188
238 177 245 372 331 324 247 176 97 67 96 252 224 245 264 245 215 223 196 159 178 171 158 193 191 167 143 139 140 146 171 169 187 262 256 255 278 199 231 147 254 237 184
286 347 251 373 384 302 247 221 122 203 240 295 325 354 324 399 373 356 249 245 223 204 202 183 195 158 122 138 152 175 196 216 253 268 298 273 255 272 321 319 230 194 185
358 432 329 381 334 316 315 241 344 389 301 302 351 409 512 521 483 416 361 275 246 189 231 196 193 141 131 136 183 220 228 227 221 234 250 267 296 328 354 356 252 179 144
356 346 364 368 314 310 360 404 488 475 390 399 396 490 550 523 471 399 338 264 188 223 240 207 165 130 149 160 174 182 204 212 223 223 247 292 348 310 344 311 216 185 116
299 411 421 360 298 290 416 501 563 451 444 466 491 502 483 459 413 326 281 252 219 240 225 188 165 138 138 161 161 149 148 178 206 215 211 235 276 246 254 215 194 162 106
273 318 295 248 397 465 490 459 449 455 439 426 423 419 433 399 352 308 267 220 199 195 217 203 178 151 132 183 155 130 142 154 159 147 149 222 221 215 233 173 208 132 109
282 242 276 370 530 533 505 464 463 423 412 391 401 417 422 401 367 323 295 268 241 157 170 156 152 134 166 165 161 133 125 140 151 182 199 250 229 242 195 206 176 164 141
246 243 327 473 548 522 450 410 411 429 401 380 383 384 389 367 334 311 298 257 227 201 141 146 132 121 139 152 156 154 145 159 160 202 240 203 161 141 151 199 178 166 172
357 331 400 451 479 452 382 331 407 457 432 432 402 378 345 311 277 265 212 209 211 186 158 139 110 109 102 118 138 146 146 220 228 233 200 152 146 143 114 144 196 175 155
370 384 446 496 497 511 496 455 471 504 505 500 412 342 306 272 257 266 265 192 155 159 138 105 91 85 105 123 111 110 143 192 179 157 135 133 159 125 150 160 158 138 103
333 356 455 537 563 583 620 610 639 623 651 626 520 422 334 287 277 281 237 191 167 164 117 99 75 72 97 93 95 140 219 220 186 170 142 121 135 149 127 121 122 90 82
256 280 332 484 626 665 673 635 672 739 688 630 579 490 338 330 295 261 200 181 165 146 107 64 47 21 85 113 166 204 214 219 207 176 177 171 157 128 121 122 98 96 95
138 99 273 455 570 623 646 583 589 628 633 600 546 425 304 336 340 304 293 199 166 121 88 72 30 53 148 183 187 192 200 198 167 161 164 150 116 117 125 142 111 97 97
111 87 131 327 466 528 569 540 490 568 608 586 515 434 488 561 559 470 404 263 128 79 92 101 114 116 174 230 236 225 206 196 171 144 149 139 146 177 186 174 149 119 95
183 133 89 90 228 334 297 335 428 541 590 571 564 649 693 728 755 615 333 105 33 85 109 151 168 190 273 285 304 273 223 201 157 154 155 133 182 190 161 143 115 80 65
191 166 125 106 108 149 217 356 482 555 592 635 757 806 819 712 658 580 189 97 79 93 114 133 164 266 300 277 295 300 246 205 170 162 148 139 160 150 145 127 87 66 68
219 202 138 112 142 206 271 432 537 633 783 860 816 829 703 724 680 346 164 71 60 82 132 148 179 318 311 289 302 256 220 199 150 134 134 124 148 145 155 117 76 64 69
159 175 215 266 200 224 400 563 688 808 805 907 821 781 876 783 353 94 62 53 82 97 126 166 208 257 273 247 261 232 209 163 138 129 140 131 152 155 127 97 87 76 68
186 200 277 353 433 533 815 897 946 935 846 825 888 866 609 320 101 83 66 36 40 106 127 150 191 212 216 188 175 177 166 140 135 126 107 120 141 117 70 62 112 109 85
282 279 319 392 497 578 701 742 868 839 956 935 816 478 143 138 99 77 24 63 88 113 114 150 198 206 201 184 162 152 139 138 151 122 99 97 116 76 53 66 67 60 76
323 310 292 321 349 382 422 521 503 526 532 510 264 128 181 88 57 21 67 93 103 124 111 182 208 213 196 215 193 165 154 147 179 145 92 62 73 57 51 42 42 66 115
315 250 230 216 195 152 153 144 181 202 169 151 148 114 66 37 49 78 92 113 130 139 123 160 176 191 174 199 229 220 202 170 179 142 112 84 90 89 78 70 66 96 121
201 192 190 182 211 210 196 155 143 140 166 142 121 108 69 60 72 87 103 114 127 155 139 139 183 197 181 183 221 239 246 209 171 184 153 115 107 83 66 80 80 75 104
191 195 192 191 161 141 131 139 110 135 154 137 98 88 92 96 103 105 103 87 111 112 116 113 157 163 169 160 219 206 166 150 145 215 226 181 130 101 75 71 68 65 84
Wind_Speed
32 33 33 38 35 35 31 28 27 24 21 20 21 24 25 28 30 31 31 34 35 37 40 43 46 49 52 53 55 53 56 58 56 57 61 61 57 63 65 64 70 70 70
31 33 29 33 33 30 27 24 23 21 21 22 23 23 24 24 26 27 28 30 34 40 44 48 52 56 55 55 53 56 58 54 56 59 62 69 68 67 70 75 76 75 75
32 31 28 29 29 28 26 22 22 22 21 16 18 20 22 24 24 26 29 32 38 44 47 51 56 59 60 60 59 58 53 54 54 59 61 72 74 81 67 76 73 79 80
25 24 20 22 24 22 21 20 21 13 20 23 21 18 14 17 19 23 27 36 41 47 49 52 58 61 62 62 58 56 54 49 56 54 60 58 63 78 86 74 74 81 83
25 24 19 15 18 18 17 18 14 13 17 15 13 10 12 16 20 25 32 39 44 46 51 55 59 61 61 61 55 52 52 53 53 57 60 62 64 63 72 88 87 80 75
17 17 12 10 11 11 11 12 13 8 11 10 10 9 8 13 20 27 34 41 45 50 54 57 57 59 59 53 51 51 54 55 55 56 58 62 62 65 69 76 81 84 72
12 14 15 12 14 14 11 13 9 7 6 6 6 8 11 16 22 28 36 43 47 52 54 55 57 59 49 50 49 53 57 55 57 56 58 55 54 58 62 69 77 77 68
9 14 18 16 14 14 13 9 9 4 1 4 8 12 15 19 25 32 38 44 48 51 54 53 56 57 47 49 50 54 56 57 56 56 51 53 57 54 58 63 67 77 70
10 18 12 14 13 13 9 8 5 3 5 7 11 15 19 22 27 33 39 44 48 50 54 56 56 54 56 51 51 54 56 54 57 58 54 57 53 51 56 57 55 59 75
12 12 13 14 11 11 6 3 6 8 9 10 14 18 21 24 30 33 38 44 48 49 54 54 56 56 56 56 53 56 54 59 59 54 52 56 58 58 54 51 54 56 63
12 10 9 10 11 9 8 9 11 13 13 14 16 20 23 27 31 35 41 44 45 49 52 56 56 57 57 55 52 56 59 56 53 55 57 56 52 50 51 49 54 59 67
9 6 7 8 9 10 10 9 13 15 15 14 18 21 25 29 33 38 40 43 45 50 52 55 56 57 56 49 57 63 57 51 55 57 58 58 54 52 47 49 56 61 69
7 8 9 12 14 14 13 12 13 13 14 16 20 23 28 30 32 35 39 41 46 49 53 57 56 54 48 52 59 56 48 48 52 54 57 58 52 47 46 50 57 62 65
8 12 16 18 18 18 17 16 15 15 16 20 21 24 27 27 32 33 36 43 44 52 53 56 55 56 50 55 53 51 52 54 53 57 57 52 47 46 47 52 55 59 62
26 21 20 19 18 18 17 16 19 21 19 21 21 24 25 27 26 31 41 47 49 50 52 51 54 58 47 51 52 50 53 51 56 54 48 46 45 48 45 49 56 57 62
44 51 40 20 18 19 19 22 23 21 18 19 22 26 22 24 31 42 51 55 52 52 55 57 55 59 51 47 48 48 49 52 51 48 47 47 48 46 44 48 55 59 65
46 49 44 26 21 19 18 23 22 18 17 18 20 20 22 30 40 50 55 49 52 56 57 52 52 54 45 44 43 46 48 47 44 44 46 47 47 42 43 52 60 64 63
52 52 48 38 24 19 20 20 16 16 17 20 22 26 30 38 44 52 52 50 61 62 60 57 51 51 46 40 42 43 45 41 38 42 45 47 42 38 44 53 57 59 57
58 57 50 41 31 23 19 17 16 14 16 20 26 33 35 41 48 54 55 57 62 58 59 57 56 47 45 40 40 38 38 39 40 44 45 44 37 34 43 50 55 55 51
57 57 56 55 48 33 22 21 24 24 25 29 33 39 42 44 50 56 63 56 57 56 60 60 51 43 42 33 31 32 35 36 42 44 43 40 35 35 41 45 47 52 49
49 50 56 57 54 41 30 28 23 23 25 33 40 44 47 48 52 50 52 59 67 66 63 56 47 40 34 28 28 28 29 33 39 41 38 34 32 36 38 40 37 36 38
49 51 52 53 49 42 34 32 33 34 37 39 40 42 45 48 48 52 57 64 67 63 60 56 40 34 30 26 23 23 25 29 34 35 33 31 28 32 38 35 32 31 30
49 49 49 48 47 44 41 39 37 37 39 42 44 45 46 46 48 54 57 63 60 60 66 47 37 35 31 27 21 20 20 24 29 29 26 26 25 25 27 23 27 32 30
50 49 50 50 48 44 42 40 41 42 44 45 44 47 47 48 49 52 54 57 55 58 57 54 42 38 35 31 27 23 22 24 26 27 22 20 22 20 18 23 27 29 28
49 50 51 50 51 49 49 46 46 46 46 47 49 49 49 49 51 53 55 56 46 45 51 50 45 46 42 36 29 25 21 21 22 24 21 18 20 25 25 22 23 28 28
49 50 50 50 50 50 50 48 48 48 50 52 52 51 49 49 53 56 58 51 44 39 42 43 44 43 38 38 30 26 22 21 20 24 22 17 19 24 23 21 23 24 27
Wind_Direction
117 121 117 121 114 116 113 108 110 104 83 72 63 83 67 63 50 46 45 35 32 25 17 8 3 360 355 353 352 352 350 348 348 345 342 342 343 341 340 341 337 335 332
124 129 122 129 127 123 120 116 123 126 122 112 101 95 83 63 58 50 41 33 23 13 6 3 359 356 353 352 352 349 347 348 350 344 341 337 336 338 338 335 333 333 332
140 142 138 139 137 135 137 130 131 141 138 114 99 87 68 57 44 40 31 23 16 8 2 358 354 352 351 348 348 348 350 346 347 347 342 336 333 333 339 336 337 335 332
148 140 136 141 143 144 141 137 134 106 119 117 104 105 72 43 38 29 22 11 3 359 358 354 351 349 348 346 345 346 347 347 343 345 346 345 340 334 331 337 337 336 333
163 156 147 135 151 147 140 136 113 95 106 103 100 77 57 39 28 13 3 358 358 357 355 352 349 348 348 347 352 353 352 352 348 346 342 339 337 338 335 331 332 334 336
167 157 148 142 154 149 143 136 126 96 93 86 77 62 50 16 359 353 351 350 350 350 350 350 350 349 349 353 354 354 351 348 346 345 344 341 339 338 337 335 335 333 335
172 165 162 158 157 162 146 139 131 121 78 50 30 17 0 350 346 345 344 344 344 345 347 348 349 347 351 351 351 349 345 345 344 345 343 341 341 339 338 337 336 334 335
156 163 165 161 154 150 150 150 154 162 22 350 343 342 341 340 341 342 342 343 344 345 348 348 348 346 347 347 346 345 343 342 340 340 341 340 338 340 340 342 341 335 335
133 153 141 144 147 152 157 165 188 254 298 310 319 325 331 333 336 340 343 344 345 344 345 346 346 346 345 343 343 342 339 341 339 339 339 342 344 348 345 345 345 340 332
119 134 149 155 154 163 180 254 264 273 295 309 316 321 328 332 336 339 340 341 342 341 342 342 343 343 343 341 341 342 343 340 340 341 342 340 336 340 344 346 343 339 334
140 138 154 173 182 195 223 263 280 281 290 302 313 318 322 328 332 335 336 339 342 341 341 341 340 340 339 340 343 343 342 345 345 344 342 342 347 345 345 346 344 339 334
176 179 192 206 223 238 247 256 285 280 286 296 310 312 317 322 325 329 334 337 338 341 340 340 338 337 339 343 340 337 339 343 343 341 339 339 344 343 345 342 340 337 332
218 230 249 244 249 257 264 269 288 285 287 294 301 307 310 315 321 328 332 336 337 340 338 337 335 336 339 339 340 341 346 350 348 344 341 341 344 344 344 343 340 336 334
263 260 258 260 257 252 260 263 281 286 288 300 301 302 308 310 317 324 332 335 335 335 336 336 335 333 332 336 339 341 342 343 345 344 343 346 348 346 343 341 340 338 336
354 321 281 278 272 270 276 277 286 291 293 300 303 306 310 315 327 332 334 333 332 332 332 331 328 331 330 333 337 338 338 341 339 344 348 351 349 345 344 344 340 339 337
337 337 343 297 278 271 276 286 288 288 291 297 306 317 327 334 335 334 332 333 332 327 324 325 326 328 329 331 335 339 342 342 343 345 348 349 349 350 349 348 345 341 337
339 338 343 334 313 298 288 287 287 290 293 302 318 327 328 330 332 331 329 324 324 326 325 325 326 327 331 333 336 339 342 343 346 347 348 348 349 350 349 344 340 339 339
341 339 339 341 334 316 307 303 300 299 306 318 326 329 329 331 334 333 326 326 328 330 330 327 327 327 328 333 334 339 343 346 346 348 348 346 348 351 349 345 344 344 345
342 342 342 341 337 328 317 315 313 317 328 330 333 335 336 332 331 331 331 328 328 330 333 332 329 331 333 335 338 341 345 346 345 346 346 348 351 354 352 348 347 348 351
341 343 345 345 340 338 339 342 343 345 345 348 345 344 342 334 331 328 326 332 333 335 335 335 336 333 334 339 344 344 345 344 346 348 350 353 356 357 355 352 352 349 353
353 355 353 350 349 355 2 0 359 348 346 342 340 337 334 332 329 329 331 329 329 331 333 334 336 340 344 345 344 345 346 348 349 350 351 355 358 357 356 355 358 360 2
354 355 356 356 358 0 2 356 349 347 346 344 340 335 331 330 331 331 330 330 331 333 334 335 338 345 347 346 344 346 347 350 349 349 352 355 356 357 357 1 4 3 5
354 355 356 358 359 359 357 350 349 348 344 338 332 331 333 333 332 330 329 331 335 335 337 337 337 340 343 342 335 339 342 345 347 348 352 356 0 1 3 6 7 8 10
351 353 353 352 353 356 354 351 345 341 338 336 338 336 334 332 332 331 330 331 333 337 338 340 334 334 334 333 331 330 334 339 342 344 346 350 355 359 2 7 12 16 19
351 350 349 349 349 352 353 354 354 353 348 341 338 336 333 332 331 332 332 333 335 337 339 339 332 333 330 326 326 323 322 328 334 342 340 341 348 353 358 7 14 17 21
351 353 353 353 352 352 353 354 352 348 342 338 336 334 333 332 331 330 331 334 332 332 332 334 334 331 323 325 320 317 312 317 328 337 333 327 335 343 347 354 2 12 16